Weather History for Andrews, NC

Change the Weather History Date:

Wednesday, June 26, 2013

  Actual Average (KTYS) Record (KTYS)
Temperature  
Mean Temperature 74 °F 77 °F  
Max Temperature 83 °F 87 °F 101 °F (1988)
Min Temperature 64 °F 67 °F 50 °F (1974)
Degree Days  
Heating Degree Days 0 0  
Month to date heating degree days 0  
Since 1 June heating degree days 0  
Since 1 July heating degree days 3633  
Cooling Degree Days 8 12  
Month to date cooling degree days 254  
Year to date cooling degree days 416  
Since 1 June cooling degree days 254  
Growing Degree Days 24 (Base 50)    
Moisture  
Dew Point 68 °F    
Average Humidity 88    
Maximum Humidity 99    
Minimum Humidity 62    
Precipitation  
Precipitation 0.00 in 0.14 in 1.45 in (1994)
Month to date precipitation 3.23  
Year to date precipitation 24.67  
Snow  
Snow 0.00 in 0.00 in - ()
Month to date snowfall 0.0  
Since 1 June snowfall 0.0  
Since 1 July snowfall 6.5  
Snow Depth -    
Sea Level Pressure  
Sea Level Pressure 30.07 in    
Wind  
Wind Speed 1 mph (WSW)    
Max Wind Speed 9 mph    
Max Gust Speed -    
Visibility 8 miles    
Events Rain    
T = Trace of Precipitation, MM = Missing Value Source: NWS Daily Summary

Daily Weather History Graph

Daily Weather History Graph

Search for Another Location

Airport:

Trip Planner

Search our weather history database for the weather conditions in past years. The results will help you decide how hot, cold, wet, or windy it might be!

Date:

Astronomy

Jun. 26, 2013 Rise Set
Actual Time 6:22 AM EDT 8:53 PM EDT
Civil Twilight 5:52 AM EDT 9:23 PM EDT
Nautical Twilight 5:16 AM EDT 10:00 PM EDT
Astronomical Twilight 4:35 AM EDT 10:41 PM EDT
Moon 11:26 PM EDT (6/26) 10:04 AM EDT (6/26)
Length of Visible Light 15h 30m
Length of Day
14h 31m
Waning Gibbous, 85% of the Moon is Illuminated
Jun 26
Waning Gibbous
Jun 30
Last Quarter
Jul 8
New
Jul 15
First Quarter
Jul 22
Full

Hourly Weather History & Observations

Time (EDT) Temp. Heat Index Dew Point Humidity Pressure Visibility Wind Dir Wind Speed Gust Speed Precip Events Conditions
12:15 AM 66.2 °F - 65.8 °F 99% 30.13 in 5.0 mi Calm Calm - N/A   Scattered Clouds
12:35 AM 66.2 °F - 65.5 °F 98% 30.12 in 5.0 mi Calm Calm - N/A   Scattered Clouds
12:55 AM 66.2 °F - 65.3 °F 97% 30.11 in 7.0 mi Calm Calm - N/A   Scattered Clouds
1:15 AM 65.7 °F - 65.3 °F 99% 30.11 in 7.0 mi Calm Calm - N/A   Mostly Cloudy
1:35 AM 65.3 °F - 65.1 °F 99% 30.11 in 5.0 mi Calm Calm - N/A   Scattered Clouds
1:55 AM 65.3 °F - 64.9 °F 99% 30.10 in 5.0 mi Calm Calm - N/A   Scattered Clouds
2:15 AM 65.1 °F - 64.8 °F 99% 30.09 in 5.0 mi Calm Calm - N/A   Mostly Cloudy
2:35 AM 64.9 °F - 64.6 °F 99% 30.09 in 4.0 mi Calm Calm - N/A   Overcast
2:55 AM 65.3 °F - 64.8 °F 98% 30.09 in 5.0 mi Calm Calm - N/A   Overcast
3:15 AM 65.5 °F - 64.8 °F 98% 30.08 in 7.0 mi Calm Calm - N/A   Overcast
3:35 AM 65.7 °F - 65.3 °F 99% 30.08 in 5.0 mi Calm Calm - N/A   Overcast
3:55 AM 65.8 °F - 65.1 °F 98% 30.08 in 7.0 mi Calm Calm - N/A   Overcast
4:15 AM 66.0 °F - 65.3 °F 98% 30.08 in 7.0 mi Calm Calm - N/A   Overcast
4:35 AM 65.7 °F - 65.3 °F 99% 30.08 in 5.0 mi Calm Calm - N/A   Overcast
4:55 AM 65.8 °F - 65.1 °F 98% 30.09 in 7.0 mi Calm Calm - N/A   Mostly Cloudy
5:15 AM 65.7 °F - 65.3 °F 99% 30.09 in 5.0 mi Calm Calm - N/A   Mostly Cloudy
5:35 AM 64.9 °F - 64.8 °F 99% 30.10 in 4.0 mi Calm Calm - N/A   Mostly Cloudy
5:55 AM 65.3 °F - 64.9 °F 99% 30.10 in 5.0 mi Calm Calm - N/A   Overcast
6:15 AM 65.1 °F - 64.6 °F 98% 30.11 in 5.0 mi Calm Calm - N/A   Mostly Cloudy
6:35 AM 65.3 °F - 64.8 °F 98% 30.11 in 4.0 mi Calm Calm - N/A   Mostly Cloudy
6:55 AM 65.1 °F - 64.6 °F 98% 30.12 in 5.0 mi Calm Calm - N/A   Mostly Cloudy
7:15 AM 65.3 °F - 64.6 °F 98% 30.12 in 5.0 mi Calm Calm - N/A   Mostly Cloudy
7:35 AM 65.7 °F - 65.3 °F 99% 30.13 in 4.0 mi Calm Calm - N/A   Overcast
7:55 AM 66.2 °F - 65.5 °F 98% 30.13 in 5.0 mi Calm Calm - N/A   Overcast
8:15 AM 66.7 °F - 65.5 °F 96% 30.14 in 7.0 mi Calm Calm - N/A   Overcast
8:35 AM 67.3 °F - 66.0 °F 96% 30.13 in 7.0 mi Calm Calm - N/A   Overcast
8:55 AM 69.6 °F - 67.3 °F 92% 30.13 in 7.0 mi Calm Calm - N/A   Overcast
9:15 AM 69.8 °F - 67.6 °F 93% 30.14 in 7.0 mi WSW 5.8 mph - N/A Rain Light Rain
9:35 AM 69.1 °F - 68.0 °F 96% 30.14 in 5.0 mi WSW 4.6 mph - N/A   Overcast
9:55 AM 69.8 °F - 68.0 °F 94% 30.13 in 7.0 mi Calm Calm - N/A   Mostly Cloudy
10:15 AM 71.1 °F - 68.2 °F 91% 30.12 in 7.0 mi Calm Calm - N/A   Mostly Cloudy
10:55 AM 74.1 °F - 69.8 °F 86% 30.11 in 7.0 mi ESE 3.5 mph - N/A   Overcast
11:15 AM 75.6 °F - 70.2 °F 83% 30.11 in 7.0 mi Calm Calm - N/A   Overcast
11:35 AM 77.9 °F - 70.7 °F 78% 30.11 in 10.0 mi Calm Calm - N/A   Mostly Cloudy
11:55 AM 77.7 °F - 69.6 °F 76% 30.11 in 10.0 mi Calm Calm - N/A   Scattered Clouds
12:15 PM 79.7 °F - 70.2 °F 73% 30.11 in 10.0 mi South 4.6 mph - N/A   Scattered Clouds
12:35 PM 81.0 °F 84.2 °F 69.6 °F 68% 30.10 in 10.0 mi WSW 9.2 mph - N/A   Scattered Clouds
12:55 PM 81.5 °F 84.8 °F 69.3 °F 66% 30.09 in 10.0 mi WSW 9.2 mph - N/A   Scattered Clouds
1:15 PM 82.8 °F 86.4 °F 69.4 °F 64% 30.08 in 10.0 mi WSW 6.9 mph - N/A   Mostly Cloudy
1:35 PM 83.1 °F 86.6 °F 69.1 °F 62% 30.08 in 10.0 mi WSW 5.8 mph - N/A   Scattered Clouds
1:55 PM 82.4 °F 86.3 °F 69.8 °F 66% 30.07 in 10.0 mi West 5.8 mph - N/A   Mostly Cloudy
2:15 PM 75.4 °F - 70.9 °F 86% 30.07 in 2.0 mi SW 5.8 mph - N/A Rain Light Rain
2:35 PM 75.6 °F - 72.3 °F 90% 30.07 in 10.0 mi Calm Calm - N/A   Mostly Cloudy
2:55 PM 77.2 °F - 72.5 °F 85% 30.06 in 10.0 mi Calm Calm - N/A   Scattered Clouds
3:15 PM 79.5 °F - 71.8 °F 77% 30.06 in 10.0 mi South 4.6 mph - N/A   Clear
3:35 PM 81.5 °F 84.9 °F 69.8 °F 67% 30.06 in 10.0 mi Calm Calm - N/A   Clear
3:55 PM 82.8 °F 86.7 °F 69.8 °F 65% 30.04 in 10.0 mi Calm Calm - N/A   Mostly Cloudy
4:15 PM 81.7 °F 84.7 °F 68.5 °F 64% 30.03 in 10.0 mi Calm Calm - N/A   Overcast
4:35 PM 81.0 °F 84.2 °F 69.6 °F 68% 30.03 in 10.0 mi Calm Calm - N/A   Overcast
4:55 PM 80.6 °F 84.6 °F 71.8 °F 74% 30.03 in 10.0 mi West 5.8 mph - N/A   Scattered Clouds
5:15 PM 81.5 °F 85.7 °F 71.4 °F 71% 30.02 in 10.0 mi WSW 6.9 mph - N/A   Clear
5:35 PM 82.2 °F 86.6 °F 71.2 °F 69% 30.01 in 10.0 mi West 6.9 mph - N/A   Scattered Clouds
5:55 PM 81.0 °F 84.7 °F 70.9 °F 71% 30.00 in 10.0 mi SSW 4.6 mph - N/A   Overcast
6:15 PM 79.9 °F - 70.2 °F 72% 30.00 in 10.0 mi SW 4.6 mph - N/A   Mostly Cloudy
6:35 PM 80.6 °F 83.9 °F 70.2 °F 70% 29.99 in 10.0 mi WSW 6.9 mph - N/A   Scattered Clouds
6:55 PM 79.0 °F - 70.2 °F 74% 29.99 in 10.0 mi West 5.8 mph - N/A   Clear
7:15 PM 77.9 °F - 70.9 °F 79% 30.00 in 10.0 mi Calm Calm - N/A   Clear
7:35 PM 77.9 °F - 71.1 °F 79% 29.99 in 10.0 mi Calm Calm - N/A   Clear
7:55 PM 76.3 °F - 71.6 °F 85% 29.99 in 10.0 mi West 3.5 mph - N/A   Clear
8:15 PM 75.2 °F - 72.1 °F 90% 29.99 in 10.0 mi Calm Calm - N/A   Mostly Cloudy
8:35 PM 74.3 °F - 72.3 °F 94% 29.99 in 10.0 mi Calm Calm - N/A   Overcast
8:55 PM 73.9 °F - 71.6 °F 92% 29.99 in 10.0 mi Calm Calm - N/A   Overcast
9:15 PM 72.9 °F - 71.6 °F 96% 29.99 in 10.0 mi Calm Calm - N/A   Mostly Cloudy
9:35 PM 72.5 °F - 70.7 °F 94% 30.00 in 10.0 mi Calm Calm - N/A   Overcast
9:55 PM 72.1 °F - 70.7 °F 95% 29.99 in 10.0 mi Calm Calm - N/A   Overcast
10:15 PM 71.2 °F - 70.2 °F 96% 30.00 in 10.0 mi Calm Calm - N/A   Overcast
10:35 PM 71.8 °F - 70.2 °F 95% 30.00 in 10.0 mi Calm Calm - N/A   Overcast
10:55 PM 71.2 °F - 70.2 °F 96% 30.01 in 10.0 mi Calm Calm - N/A   Overcast
11:15 PM 71.6 °F - 70.2 °F 95% 30.01 in 10.0 mi Calm Calm - N/A   Overcast
11:35 PM 71.2 °F - 70.2 °F 96% 30.03 in 10.0 mi Calm Calm - N/A   Overcast
11:55 PM 70.9 °F - 70.2 °F 98% 30.03 in 7.0 mi West 3.5 mph - N/A   Mostly Cloudy